Regional Weather Roundup
Issued by NWS

Home | Current Version | Previous Version | Graphics & Text | Print | Product List | Glossary On
Versions: 1 2 3 4 5 6 7 8 9 10 11 12 13 14 15 16 17 18 19 20 21 22 23 24 25 26 27 28 29 30 31 32 33 34 35 36 37 38 39 40 41 42 43 44 45 46 47 48 49 50
000
ASUS43 KFSD 270710
RWRSD

WEATHER ROUNDUP FOR SOUTH DAKOTA
NATIONAL WEATHER SERVICE SIOUX FALLS SD
200 AM CDT FRI MAR 27 2015

NOTE: "FAIR" INDICATES FEW OR NO CLOUDS BELOW 12,000 FEET WITH NO
SIGNIFICANT WEATHER AND/OR OBSTRUCTIONS TO VISIBILITY.


SDZ001>005-009-010-012>017-270800-
NORTHWEST AND NORTH CENTRAL SOUTH DAKOTA

CITY           SKY/WX    TMP DP  RH WIND       PRES   REMARKS
BUFFALO          N/A     33  30  88 S12       30.05F WCI  24
FAITH            N/A     32  26  78 S8        30.17F WCI  25
MOBRIDGE       MOCLDY    26  14  60 SE9       30.23R WCI  17
$$

SDZ012>016-024>037-041>051-057-063-072>074-270800-
SOUTHWEST AND SOUTH CENTRAL SOUTH DAKOTA

CITY           SKY/WX    TMP DP  RH WIND       PRES   REMARKS
RAPID CTY ARPT CLOUDY    33  27  78 SE8       30.14F WCI  26
PIERRE         MOCLDY    26  19  74 E6        30.25R WCI  19
CUSTER         CLOUDY    33  31  92 SW7       30.10F WCI  27
ELLSWORTH AFB  CLOUDY    33  28  80 S10       30.13F WCI  25
PHILIP         CLOUDY    33  26  75 S5        30.20F WCI  29
PINE RIDGE     CLOUDY    36  33  89 S6        30.16F
SPEARFISH      CLOUDY    37  32  81 SE5       30.10F
WINNER         CLOUDY    30  26  85 NE5       30.24R WCI  25
$$

SDZ004>011-016>023-039-040-270800-
NORTHEAST SOUTH DAKOTA

CITY           SKY/WX    TMP DP  RH WIND       PRES   REMARKS
ABERDEEN       CLEAR     15  12  88 CALM      30.30S
WATERTOWN      CLEAR     15  10  80 N7        30.25S WCI   5
SISSETON         N/A     17  13  84 N6        30.29S WCI   9
$$

SDZ017-020-022-023-036>040-048>070-270800-
SOUTHEAST SOUTH DAKOTA

CITY           SKY/WX    TMP DP  RH WIND       PRES   REMARKS
SIOUX FALLS    CLEAR     19  13  77 N5        30.26S WCI  12
HURON          CLEAR     14  10  84 CALM      30.29R
CHAMBERLAIN    CLEAR     15  11  84 CALM      30.27R
MITCHELL       CLEAR     20  14  77 CALM      30.29S
YANKTON        CLEAR     25  16  68 N7        30.28S WCI  17
$$

ABBREVIATIONS USED IN REMARKS
   TC - TEMPERATURE IN CELSIUS
  WCI - WIND CHILL INDEX
   HX - HEAT INDEX
  VSB - VISIBILITY



USA.gov is the U.S. government's official web portal to all federal, state and local government web resources and services.